星链-5301 (STARLINK-5301 )

导读

STARLINK-5301是美国太空探索技术公司Starlink星链互联网卫星星座的一员,于2023年1月19日发射升空。星链计划旨在搭建全球卫星互联网,为全球偏远地区、海洋与空中等场景提供高速低延迟网络接入。该卫星作为星链组网的组成部分,承担着扩容星座容量、增强网络覆盖的任务,助力星链完成全球组网布局,同时也推进了低轨卫星互联网的商业化应用进程。

基本信息
目录编号:
55270
目录名称:
STARLINK-5301
国际标识:
2023-010B
轨道中心:
EARTH
卫星名称:
星链-5301
卫星全名:
星链-5301 (STARLINK-5301 )
卫星状态:
已陨落 最后检测时间 2025-02-25
发射日期:
2023-01-19 UTC
国别 :
美国 (US)
星等 :
--
轨道信息
数据来源 国际轨道数据
星历时间: 2025-02-26T00:38:06+0800
轨道信息已过期474天
半长轴: 6519.642km
偏心率: 0.0007783
轨道倾角: 69.979°
近地点辐角 255.106°
升交点赤经 258.998°
平近点角 221.840°
近地点: 136.432km
远地点: 146.582km
周期: 87.316分钟
每日圈数: 16.491768
详细信息
固有亮度:
5
最大亮度:
2.5
卫星平台:
Starlink v1.5
覆盖范围:
全球
运营商:
太空探索技术公司
运营商所在国:
美国
制造商(研发单位):
太空探索技术公司
制造商所在国:
美国
使用方式:
暂无
卫星简介
星链(Starlink)计划是由太空探索技术公司(SpaceX)提出的一个巨型低轨卫星互联网星座项目,计划在2019年至2024年间在太空搭建由约1.2万颗卫星组成的“星链”网络,其中1584颗将部署在地球上空550千米处的近地轨道,并从2020年开始工作。该卫星仍在工作。